Torna al catalogo

SCOUT B DEB

LostUNKNOWN
NORAD 29009·DEBRIS·🇺🇸 United States

Lanciato Aug 10, 1965 da Wallops Flight Facility

Loading…

Prossimi Passaggi (prossime 24 ore)

TLE

ObsoletoSource: Space-Track

Epoca: Jun 16, 2026, 04:06 UTC

1 29009U 65063P   26167.17149056 -.00000946  00000-0 -47749-2 0  9999
2 29009  69.2136 117.3166 0809687 297.5937  72.8925 11.93870896 20113

Traccia SCOUT B DEB in tempo reale con AllMySat

Download on the App Store